Notices

What's New in latest Release from April 7th, 2021:

- Updated Glossary, including Speed of Maximum Gust, and Total Hourly Precipitation

- Updated national and regional climate services offices contacts and prices information

- Addition of station inventory lists for 1981-2010, 1971-2000, and 1961-1990 Normals.

If you haven't already, please take our survey and provide feedback about our website: https://eccc.sondage-survey.ca/f/LanguageSelection.aspx?s=442ca660-fcf1-47c0-95a9-59707d6fd709

Hourly Data Report for December 12, 2019

CARBERRY CS
MANITOBA
Current Station Operator: ECCC - MSC

49°54'20.900" N
99°21'26.800" W
383.50 m
5010547
71170
WZE

Download Data

Hourly Data (December 2019)
Hourly Data Report for December 12, 2019
TIME
LST
Temp Definition
°C
Dew Point Definition
°C
Rel Hum Definition
%
Precip. Amount Definition
mm

Wind Dir Definition
10's deg

Wind Spd Definition
km/h
Visibility Definition
km
Stn Press Definition
kPa
Hmdx Definition


Wind Chill Definition


Weather Definition


00:00 -21.1 -24.6 73 0.0 6 9   97.75   -28 LegendNANA
01:00 -22.1 -25.2 76 0.0 7 7   97.73   -28 LegendNANA
02:00 -23.0 -25.8 78 0.0 5 10   97.69   -31 LegendNANA
03:00 -23.7 -26.5 77 0.0 7 9   97.67   -31 LegendNANA
04:00 -23.3 -26.0 79 0.0 8 7   97.64   -29 LegendNANA
05:00 -23.5 -26.1 79 0.0 6 6   97.61   -29 LegendNANA
06:00 -23.1 -25.4 81 0.0 6 8   97.61   -30 LegendNANA
07:00 -22.4 -24.9 80 0.0 5 8   97.59   -29 LegendNANA
08:00 -21.3 -23.8 80 0.0 7 5   97.57   -26 LegendNANA
09:00 -20.5 -23.1 79 0.0 9 9   97.55   -27 LegendNANA
10:00 -20.4 -23.3 77 0.0 7 6   97.55   -25 LegendNANA
11:00 -18.8 -22.5 72 0.0 9 8   97.46   -25 LegendNANA
12:00 -16.8 -22.0 64 0.2 7 3   97.44   -19 LegendNANA
13:00 -15.2 -19.9 68 0.0 13 12   97.31   -22 LegendNANA
14:00 -14.3 -19.4 65 0.0 11 12   97.23   -21 LegendNANA
15:00 -14.4 -19.4 66 0.0 10 9   97.21   -20 LegendNANA
16:00 -14.1 -18.5 69 0.0 9 11   97.18   -21 LegendNANA
17:00 -15.2 -18.4 77 0.0 8 14   97.13   -23 LegendNANA
18:00 -14.7 -17.8 77 0.0 11 14   97.11   -22 LegendNANA
19:00 -15.0 -18.1 77 0.0 11 15   97.04   -23 LegendNANA
20:00 -15.2 -18.2 78 0.0 11 12   97.00   -22 LegendNANA
21:00 -15.2 -18.1 78 0.0 11 14   96.93   -23 LegendNANA
22:00 -15.1 -17.9 79 0.0 12 13   96.87   -22 LegendNANA
23:00 -14.9 -17.7 79 0.0 12 13   96.78   -22 LegendNANA

Notes on Data Quality.

Legend

  • E = Estimated
  • M = Missing
  • NA = Not Available*
  • [empty] = Indicates an unobserved value
Date modified: